TimeMDT,TemperatureF,Dew PointF,Humidity,Sea Level PressureIn,VisibilityMPH,Wind Direction,Wind SpeedMPH,Gust SpeedMPH,PrecipitationIn,Events,Conditions,WindDirDegrees,DateUTC
12:15 AM,35.6,19.4,52,30.20,10.0,Calm,Calm,-,N/A,,Clear,0,2014-04-11 06:15:00
12:35 AM,35.6,19.4,52,30.20,10.0,Calm,Calm,-,N/A,,Clear,0,2014-04-11 06:35:00
12:55 AM,33.8,21.2,60,30.21,10.0,NE,3.5,-,N/A,,Clear,50,2014-04-11 06:55:00
1:15 AM,33.8,21.2,60,30.21,10.0,East,5.8,-,N/A,,Clear,80,2014-04-11 07:15:00
1:35 AM,32.0,19.4,60,30.22,10.0,Calm,Calm,-,N/A,,Clear,0,2014-04-11 07:35:00
1:55 AM,30.2,21.2,69,30.22,10.0,Calm,Calm,-,N/A,,Clear,0,2014-04-11 07:55:00
2:15 AM,32.0,19.4,60,30.22,10.0,Calm,Calm,-,N/A,,Clear,0,2014-04-11 08:15:00
2:35 AM,32.0,21.2,64,30.22,10.0,Calm,Calm,-,N/A,,Clear,0,2014-04-11 08:35:00
2:55 AM,30.2,19.4,64,30.23,10.0,Calm,Calm,-,N/A,,Clear,0,2014-04-11 08:55:00
3:15 AM,28.4,19.4,69,30.23,10.0,Calm,Calm,-,N/A,,Clear,0,2014-04-11 09:15:00
3:35 AM,28.4,19.4,69,30.23,10.0,Calm,Calm,-,N/A,,Clear,0,2014-04-11 09:35:00
3:55 AM,28.4,19.4,69,30.23,10.0,ENE,3.5,-,N/A,,Clear,60,2014-04-11 09:55:00
4:15 AM,24.8,19.4,80,30.24,10.0,Calm,Calm,-,N/A,,Clear,0,2014-04-11 10:15:00
4:35 AM,26.6,19.4,74,30.24,10.0,WSW,3.5,-,N/A,,Clear,240,2014-04-11 10:35:00
4:55 AM,26.6,19.4,74,30.24,10.0,Calm,Calm,-,N/A,,Clear,0,2014-04-11 10:55:00
5:15 AM,24.8,17.6,74,30.25,10.0,Calm,Calm,-,N/A,,Clear,0,2014-04-11 11:15:00
5:35 AM,24.8,17.6,74,30.25,10.0,Calm,Calm,-,N/A,,Clear,0,2014-04-11 11:35:00
5:55 AM,24.8,17.6,74,30.25,10.0,Calm,Calm,-,N/A,,Clear,0,2014-04-11 11:55:00
6:15 AM,24.8,17.6,74,30.26,10.0,Calm,Calm,-,N/A,,Clear,0,2014-04-11 12:15:00
6:35 AM,26.6,19.4,74,30.26,10.0,Calm,Calm,-,N/A,,Clear,0,2014-04-11 12:35:00
6:55 AM,26.6,17.6,69,30.27,10.0,Calm,Calm,-,N/A,,Clear,0,2014-04-11 12:55:00
7:15 AM,24.8,19.4,80,30.27,10.0,Calm,Calm,-,N/A,,Clear,0,2014-04-11 13:15:00
7:35 AM,26.6,21.2,80,30.28,10.0,Calm,Calm,-,N/A,,Clear,0,2014-04-11 13:35:00
7:55 AM,28.4,21.2,74,30.29,10.0,Calm,Calm,-,N/A,,Clear,0,2014-04-11 13:55:00
8:15 AM,30.2,21.2,69,30.29,10.0,Calm,Calm,-,N/A,,Clear,0,2014-04-11 14:15:00
8:35 AM,32.0,19.4,60,30.29,10.0,Calm,Calm,-,N/A,,Clear,0,2014-04-11 14:35:00
8:55 AM,35.6,19.4,52,30.28,10.0,Calm,Calm,-,N/A,,Clear,0,2014-04-11 14:55:00
9:15 AM,37.4,21.2,52,30.28,10.0,Calm,Calm,-,N/A,,Clear,0,2014-04-11 15:15:00
9:35 AM,39.2,21.2,49,30.28,10.0,Calm,Calm,-,N/A,,Clear,0,2014-04-11 15:35:00
9:55 AM,42.8,19.4,39,30.27,10.0,Calm,Calm,-,N/A,,Clear,0,2014-04-11 15:55:00
10:15 AM,42.8,21.2,42,30.27,10.0,Calm,Calm,-,N/A,,Clear,0,2014-04-11 16:15:00
10:35 AM,46.4,21.2,37,30.27,10.0,Calm,Calm,-,N/A,,Clear,0,2014-04-11 16:35:00
10:55 AM,46.4,19.4,34,30.27,10.0,SSE,4.6,-,N/A,,Clear,150,2014-04-11 16:55:00
11:15 AM,48.2,21.2,34,30.26,10.0,South,4.6,-,N/A,,Clear,180,2014-04-11 17:15:00
11:35 AM,51.8,23.0,33,30.25,10.0,Calm,Calm,-,N/A,,Clear,0,2014-04-11 17:35:00
11:55 AM,53.6,21.2,28,30.23,10.0,NE,6.9,-,N/A,,Clear,40,2014-04-11 17:55:00
12:15 PM,53.6,21.2,28,30.22,10.0,NNE,5.8,-,N/A,,Clear,20,2014-04-11 18:15:00
12:35 PM,55.4,21.2,26,30.21,10.0,Calm,Calm,-,N/A,,Clear,0,2014-04-11 18:35:00
12:55 PM,55.4,21.2,26,30.20,10.0,SW,6.9,-,N/A,,Clear,220,2014-04-11 18:55:00
1:15 PM,57.2,21.2,25,30.19,10.0,South,4.6,-,N/A,,Clear,190,2014-04-11 19:15:00
1:35 PM,60.8,21.2,22,30.17,10.0,Calm,Calm,-,N/A,,Clear,0,2014-04-11 19:35:00
1:55 PM,62.6,19.4,19,30.15,10.0,SSE,4.6,-,N/A,,Clear,160,2014-04-11 19:55:00
2:15 PM,64.4,17.6,16,30.14,10.0,NNW,11.5,-,N/A,,Clear,330,2014-04-11 20:15:00
2:35 PM,64.4,15.8,15,30.14,10.0,West,16.1,23.0,N/A,,Clear,260,2014-04-11 20:35:00
2:55 PM,64.4,15.8,15,30.12,10.0,West,17.3,27.6,N/A,,Clear,270,2014-04-11 20:55:00
3:15 PM,64.4,15.8,15,30.11,10.0,West,13.8,20.7,N/A,,Clear,270,2014-04-11 21:15:00
3:35 PM,64.4,15.8,15,30.10,10.0,West,13.8,20.7,N/A,,Clear,260,2014-04-11 21:35:00
3:55 PM,64.4,14.0,14,30.09,10.0,West,12.7,17.3,N/A,,Clear,270,2014-04-11 21:55:00
4:15 PM,64.4,15.8,15,30.08,10.0,WSW,9.2,23.0,N/A,,Clear,240,2014-04-11 22:15:00
4:35 PM,64.4,14.0,14,30.08,10.0,West,13.8,24.2,N/A,,Clear,270,2014-04-11 22:35:00
4:55 PM,64.4,14.0,14,30.07,10.0,West,12.7,29.9,N/A,,Clear,270,2014-04-11 22:55:00
5:15 PM,64.4,14.0,14,30.07,10.0,WSW,13.8,-,N/A,,Clear,250,2014-04-11 23:15:00
5:35 PM,64.4,12.2,13,30.07,10.0,West,16.1,23.0,N/A,,Clear,270,2014-04-11 23:35:00
5:55 PM,62.6,12.2,14,30.06,10.0,WNW,13.8,19.6,N/A,,Clear,290,2014-04-11 23:55:00
6:15 PM,62.6,10.4,13,30.06,10.0,WNW,10.4,21.9,N/A,,Clear,290,2014-04-12 00:15:00
6:35 PM,62.6,10.4,13,30.06,10.0,West,10.4,-,N/A,,Clear,280,2014-04-12 00:35:00
6:55 PM,60.8,10.4,14,30.06,10.0,West,11.5,-,N/A,,Clear,280,2014-04-12 00:55:00
7:15 PM,60.8,10.4,14,30.06,10.0,West,8.1,-,N/A,,Clear,280,2014-04-12 01:15:00
7:35 PM,57.2,10.4,16,30.07,10.0,West,5.8,-,N/A,,Clear,260,2014-04-12 01:35:00
7:55 PM,55.4,12.2,18,30.07,10.0,WSW,13.8,17.3,N/A,,Clear,240,2014-04-12 01:55:00
8:15 PM,55.4,12.2,18,30.08,10.0,WSW,6.9,-,N/A,,Clear,250,2014-04-12 02:15:00
8:35 PM,53.6,12.2,19,30.08,10.0,West,4.6,-,N/A,,Clear,280,2014-04-12 02:35:00
8:55 PM,53.6,12.2,19,30.09,10.0,SW,4.6,-,N/A,,Clear,230,2014-04-12 02:55:00
9:15 PM,51.8,12.2,21,30.09,10.0,Calm,Calm,-,N/A,,Clear,0,2014-04-12 03:15:00
9:35 PM,48.2,15.8,27,30.09,10.0,SSE,5.8,-,N/A,,Clear,150,2014-04-12 03:35:00
9:55 PM,44.6,17.6,34,30.10,10.0,Calm,Calm,-,N/A,,Clear,0,2014-04-12 03:55:00
10:15 PM,48.2,17.6,30,30.09,10.0,North,3.5,-,N/A,,Clear,350,2014-04-12 04:15:00
10:35 PM,44.6,21.2,39,30.09,10.0,North,5.8,-,N/A,,Clear,360,2014-04-12 04:35:00
10:55 PM,44.6,19.4,37,30.09,10.0,North,3.5,-,N/A,,Clear,350,2014-04-12 04:55:00
11:15 PM,42.8,19.4,39,30.08,10.0,North,6.9,-,N/A,,Clear,350,2014-04-12 05:15:00
11:35 PM,41.0,19.4,42,30.08,10.0,Calm,Calm,-,N/A,,Clear,0,2014-04-12 05:35:00
11:55 PM,41.0,21.2,45,30.08,10.0,North,5.8,-,N/A,,Clear,350,2014-04-12 05:55:00